Location: Kielce
(50.8833°N, 20.6167°E)
Time: 21:14:30
(UTC+02:00)

SR - Pass Details

Date: 29 April 2021
Orbit: 573 x 882 km, 66.7° (Epoch: 09 May)

Event Time Altitude Azimuth Distance (km) Brightness Sun altitude
Rises 07:55:35 0° 255° (WSW) 3,416 ? 23.9°
Reaches altitude 10° 07:58:18 10° 265° (W) 2,509 ? 24.3°
Maximum altitude 08:03:30 32° 327° (NNW) 1,485 ? 25.2°
Drops below altitude 10° 08:08:46 10° 29° (NNE) 2,545 ? 26.0°
Sets 08:11:34 0° 40° (NE) 3,471 ? 26.4°
